Weather History for Gainesville, FL

Change the Weather History Date:

Thursday, November 7, 2013

  Actual Average Record
Temperature  
Mean Temperature 77 °F 65 °F  
Max Temperature 85 °F 76 °F 88 °F (1943)
Min Temperature 68 °F 53 °F 35 °F (2001)
Degree Days  
Heating Degree Days 0 3  
Month to date heating degree days 2 19  
Since 1 July heating degree days 17 46  
Cooling Degree Days 12 3  
Month to date cooling degree days 35 23  
Year to date cooling degree days 2776 2573  
Growing Degree Days 26 (Base 50)    
Moisture  
Dew Point 64 °F    
Average Humidity 67    
Maximum Humidity 90    
Minimum Humidity 44    
Precipitation  
Precipitation T in 0.08 in 1.44 in (1932)
Month to date precipitation 1.28 0.49  
Year to date precipitation 41.26 43.36  
Snow  
Snow 0.00 in 0.00 in 0.00 in ()
Month to date snowfall 0.0 0.0  
Since 1 July snowfall 0.0 0.0  
Since 1 September snowfall 0.0 0.0  
Snow Depth 0.00 in    
Sea Level Pressure  
Sea Level Pressure 30.04 in    
Wind  
Wind Speed 3 mph (North)    
Max Wind Speed 13 mph    
Max Gust Speed 23 mph    
Visibility 8 miles    
Events      
T = Trace of Precipitation, MM = Missing Value Source: NWS Daily Summary

Daily Weather History Graph

Daily Weather History Graph

Search for Another Location

Airport:

Trip Planner

Search our weather history database for the weather conditions in past years. The results will help you decide how hot, cold, wet, or windy it might be!

Date:

Astronomy

Nov. 07, 2013 Rise Set
Actual Time 6:47 AM EST 5:37 PM EST
Civil Twilight 6:22 AM EST 6:02 PM EST
Nautical Twilight 5:53 AM EST 6:31 PM EST
Astronomical Twilight 5:25 AM EST 6:59 PM EST
Moon 10:51 AM EST (11/7) 9:50 PM EST (11/7)
Length of Visible Light 11h 40m
Length of Day
10h 50m
Waxing Crescent, 22% of the Moon is Illuminated
Nov 7
Waxing Crescent
Nov 10
First Quarter
Nov 17
Full
Nov 25
Last Quarter
Dec 2
New

Hourly Weather History & Observations

Time (EST) Temp. Heat Index Dew Point Humidity Pressure Visibility Wind Dir Wind Speed Gust Speed Precip Events Conditions
12:13 AM 69.8 °F - 66.2 °F 88% 30.09 in 6.0 mi Calm Calm - N/A   Overcast
12:53 AM 70.0 °F - 64.9 °F 84% 30.08 in 6.0 mi NE 5.8 mph - N/A   Haze
1:04 AM 69.8 °F - 64.4 °F 83% 30.08 in 6.0 mi NE 8.1 mph - N/A   Overcast
1:53 AM 69.1 °F - 64.9 °F 87% 30.06 in 5.0 mi ENE 4.6 mph - N/A   Overcast
2:53 AM 69.1 °F - 64.9 °F 87% 30.05 in 6.0 mi ENE 5.8 mph - N/A   Overcast
3:53 AM 69.1 °F - 64.9 °F 87% 30.04 in 6.0 mi Calm Calm - N/A   Overcast
4:53 AM 69.1 °F - 64.9 °F 87% 30.04 in 6.0 mi Calm Calm - N/A   Overcast
5:53 AM 69.1 °F - 64.9 °F 87% 30.04 in 6.0 mi Calm Calm - N/A   Overcast
6:53 AM 68.0 °F - 64.9 °F 90% 30.05 in 5.0 mi Calm Calm - N/A   Overcast
7:38 AM 68.0 °F - 64.4 °F 88% 30.07 in 4.0 mi Calm Calm - N/A   Overcast
7:53 AM 68.0 °F - 64.9 °F 90% 30.07 in 4.0 mi Calm Calm - N/A   Overcast
8:53 AM 69.1 °F - 64.9 °F 87% 30.07 in 5.0 mi Calm Calm - N/A   Overcast
9:18 AM 71.6 °F - 64.4 °F 78% 30.08 in 6.0 mi Calm Calm - N/A   Haze
9:53 AM 72.0 °F - 64.9 °F 78% 30.08 in 8.0 mi Calm Calm - 0.00 in   Overcast
10:18 AM 71.6 °F - 66.2 °F 83% 30.08 in 8.0 mi NNW 4.6 mph - N/A   Scattered Clouds
10:53 AM 75.0 °F - 66.0 °F 73% 30.07 in 9.0 mi North 3.5 mph - N/A   Clear
11:53 AM 80.1 °F 81.9 °F 64.9 °F 60% 30.04 in 10.0 mi Calm Calm - N/A   Clear
12:53 PM 82.0 °F 83.1 °F 63.0 °F 52% 30.02 in 10.0 mi Variable 5.8 mph - N/A   Clear
1:53 PM 84.0 °F 84.0 °F 60.1 °F 44% 29.99 in 10.0 mi North 6.9 mph - N/A   Clear
2:53 PM 84.0 °F 84.4 °F 61.0 °F 46% 29.99 in 10.0 mi Variable 4.6 mph - N/A   Clear
3:53 PM 82.9 °F 83.3 °F 61.0 °F 47% 29.99 in 10.0 mi NNW 5.8 mph - N/A   Clear
4:53 PM 80.1 °F 81.5 °F 63.0 °F 56% 29.99 in 10.0 mi NW 5.8 mph - N/A   Clear
5:53 PM 73.0 °F - 64.0 °F 73% 30.00 in 10.0 mi Calm Calm - N/A   Clear
6:53 PM 73.9 °F - 63.0 °F 68% 30.01 in 10.0 mi NNW 3.5 mph - N/A   Clear
7:53 PM 70.0 °F - 63.0 °F 78% 30.02 in 10.0 mi NW 4.6 mph - N/A   Clear
8:53 PM 70.0 °F - 63.0 °F 78% 30.03 in 10.0 mi NNW 3.5 mph - N/A   Clear
9:53 PM 70.0 °F - 63.0 °F 78% 30.04 in 10.0 mi NNW 4.6 mph - N/A   Clear
10:53 PM 68.0 °F - 63.0 °F 84% 30.04 in 10.0 mi NW 3.5 mph - N/A   Clear
11:53 PM 68.0 °F - 63.0 °F 84% 30.04 in 10.0 mi NNW 4.6 mph - N/A   Mostly Cloudy